Regional Weather Roundup
Issued by NWS

Home | Current Version | Previous Version | Graphics & Text | Print | Product List | Glossary On
Versions: 1 2 3 4 5 6 7 8 9 10 11 12 13 14 15 16 17 18 19 20 21 22 23 24 25 26 27 28 29 30 31 32 33 34 35 36 37 38 39 40 41 42 43 44 45 46 47 48 49 50
000
ASUS43 KMKX 030921
RWRWI

WISCONSIN REGIONAL WEATHER ROUNDUP
NATIONAL WEATHER SERVICE MILWAUKEE/SULLIVAN WI
400 AM CDT FRI JUL 03 2015

NOTE: "FAIR" INDICATES FEW OR NO CLOUDS BELOW 12,000 FEET WITH NO
SIGNIFICANT WEATHER AND/OR OBSTRUCTIONS TO VISIBILITY.

WIZ001-002-006>008-014>016-023>028-031000-
NORTHWEST WISCONSIN

CITY           SKY/WX    TMP DP  RH WIND       PRES   REMARKS
SUPERIOR ARPT  CLOUDY    60  56  88 SW8       29.92S
ASHLAND        MOCLDY    61  55  81 SW7       29.92F
HAYWARD        CLEAR     52  49  89 S3        29.97F
SIREN          CLEAR     58  55  90 SW7       29.96F
CUMBERLAND     CLEAR     54  52  94 CALM      29.99R
RICE LAKE      CLEAR     54  53  96 CALM      30.00S FOG
CHETEK         CLEAR     54  54 100 CALM      29.99S
LADYSMITH      CLEAR     54  52  92 CALM      30.01R
EAU CLAIRE     PTCLDY    54  52  93 CALM      29.98S FOG
MENOMONIE      CLEAR     56  55  97 CALM      29.99S FOG
NEW RICHMOND   CLEAR     55  55  99 CALM      29.99S
OSCEOLA        CLEAR     55  55 100 CALM      30.01R
$$

WIZ003>005-009-010-017-018-031000-
NORTH CENTRAL WISCONSIN

CITY           SKY/WX    TMP DP  RH WIND       PRES   REMARKS
MANITOWISH WTR CLEAR     55  53  94 SW5       29.98S
ARBOR VITAE    CLEAR     57  54  89 CALM      29.99S
WOODRUFF       CLEAR     57  54  89 CALM      29.99S
RHINELANDER    CLEAR     57  50  77 SW8       30.00S
EAGLE RIVER    CLEAR     54  48  82 SW3       29.99R
LAND O LAKES   CLEAR     51  51 100 S3        29.99S
PHILLIPS       CLEAR     55  51  84 S5        29.99R
TOMAHAWK       CLEAR     46  44  93 CALM      30.01S
MEDFORD        CLEAR     54  49  85 CALM      30.01S
MERRILL        CLEAR     46  46 100 CALM      30.01S
$$

WIZ029-030-035-036-043>047-031000-
CENTRAL WISCONSIN

CITY           SKY/WX    TMP DP  RH WIND       PRES   REMARKS
WAUSAU         CLEAR     52  49  89 SE3       29.99S
MOSINEE        CLEAR     54  50  87 CALM      30.01S
MARSHFIELD     CLEAR     54  48  80 SW3       30.01R
STEVENS POINT  CLEAR     47  46  93 CALM      30.01S
WAUPACA        CLEAR     51  50  97 CALM      30.00S
WAUTOMA        PTCLDY    47  47 100 CALM      30.01S
WISC RAPIDS    CLEAR     51  46  83 CALM      30.02R
CAMP DOUGLAS   FOG       45  45 100 CALM      30.00R VSB 3/4
$$

WIZ011>013-019>022-031-037>040-048>050-031000-
NORTHEAST WISCONSIN

CITY           SKY/WX    TMP DP  RH WIND       PRES   REMARKS
ANTIGO         CLEAR     50  48  92 CALM      30.01S
SHAWANO        CLEAR     53  50  90 CALM      30.00S
OCONTO         CLEAR     47  47 100 CALM      29.99R
STURGEON BAY   CLEAR     55  41  58 CALM      30.01S
GREEN BAY      CLEAR     53  48  83 CALM      30.00R
MANITOWOC      CLEAR     50  48  93 MISG      30.00S
APPLETON       CLEAR     54  46  76 W5        30.00S
CLINTONVILLE   CLEAR     50  46  87 CALM      30.00S
OSHKOSH        PTCLDY    53  45  74 SW3       29.99S
$$

WIZ032>034-041-042-053>061-031000-
SOUTHWEST WISCONSIN

CITY           SKY/WX    TMP DP  RH WIND       PRES   REMARKS
LA CROSSE      PTCLDY    56  54  93 E6        29.99S
SPARTA         CLEAR     46  44  95 CALM      30.01S
VIROQUA        PTCLDY    55  51  89 CALM      30.01S
BOSCOBEL       FOG       55  54  96 CALM      30.00S VSB 1/4
PRAIRIE DU CHI PTCLDY    53  52  95 E3        30.00R FOG
PLATTEVILLE    MOCLDY    55  51  87 E5        30.00R
$$

WIZ056-057-062-063-064-067-068-031000-
SOUTH CENTRAL WISCONSIN

CITY           SKY/WX    TMP DP  RH WIND       PRES   REMARKS
REEDSBURG      PTCLDY    50  50 100 CALM      29.99S
BARABOO/DELLS  PTCLDY    49  46  89 CALM      30.00S
LONE ROCK      MOCLDY    51  49  92 CALM      30.01R
MINERAL POINT  PTCLDY    55  52  88 CALM      30.00S
MADISON        PTCLDY    51  48  89 CALM      29.99S
MIDDLETON      PTCLDY    52  51  97 CALM      30.00S
WATERTOWN      PTCLDY    49  49 100 CALM      29.99S
MONROE         PTCLDY    54  50  87 CALM      29.99S
JANESVILLE     MOCLDY    52  50  93 CALM      29.98S
$$

WIZ051-052-058>065-066-070>072-031000-
SOUTHEAST WISCONSIN

CITY           SKY/WX    TMP DP  RH WIND       PRES   REMARKS
MILWAUKEE      PTCLDY    55  47  74 NW3       29.99S
WAUKESHA       PTCLDY    48  43  81 CALM      30.00S
MILWAUKEE/TIMM PTCLDY    50  45  81 CALM      30.00S
RACINE         MOCLDY    55  48  77 CALM      30.00S
BURLINGTON     MOCLDY    47  46  97 CALM      29.99S
KENOSHA        MOCLDY    50  47  89 N3        29.98S
FOND DU LAC    PTCLDY    50  47  89 CALM      30.00S
SHEBOYGAN      CLEAR     49  46  90 CALM      29.99F
WEST BEND      PTCLDY    46  45  93 CALM      30.00S
JUNEAU         PTCLDY    50  48  92 CALM      30.01S
$$

LSZ147-162-031000-
LAKE SUPERIOR

STATION/POSITION TIME  TEMP    WIND        PRES    WAVE
                       AIR SEA DIR/SP/G            HT/PER
                 (UTC) (F)     (DEG/KT/KT) (MB)    (FT/S)
W MID LAKE BUOY  0850   47 38  210/ 12/ 14 1011.4F   1/ 3
DEVILS ISLAND    0900   64     230/ 13/ 15 1011.9F
SAXON HARBOR     0800   61     200/  2/  7 1013.2S
$$

LMZ867-665-643>646-031000-
LAKE MICHIGAN

STATION/POSITION TIME  TEMP    WIND        PRES    WAVE
                       AIR SEA DIR/SP/G            HT/PER
                 (UTC) (F)     (DEG/KT/KT) (MB)    (FT/S)
CHAMBERS ISLAND  0800   63     180/  5/  9 1015.2S
S GREEN BAY BUOY 0830   64 68  180/  8/ 10 1016.6F
N MID LAKE BUOY  0850   52 46  230/  8/  8 1015.4S   0
NORTHPORT PIER   0800   60     180/  4/  6 1015.2R
SISTER BAY       0814   62     210/ 10/ 12   N/A
ALGOMA LAKESHORE 0810             CALM       N/A
KEWAUNEE LAKESHO 0800   55     300/  4/  5 1014.9F
SHEBOYGAN LAKESH 0900   56     270/  2/  3 1015.8F
PORT WASHINGTON  0800   54     270/  3/  4 1016.3
ATWATER BUOY     0900   58     320/  4/  4 1016.8S
MILWAUKEE LAKESH 0900   57     330/  4/  5   N/A
KENOSHA   LAKESH 0900   60      30/  6/  6 1015.2S
$$

TC  - TEMPERATURE IN CELSIUS
VSB - VISIBILITY IN STATUTE MILES
WCI - WIND CHILL INDEX
HX  - HEAT INDEX




USA.gov is the U.S. government's official web portal to all federal, state and local government web resources and services.